Del Bajio, Mexico

9:28 AM CST on December 15, 2017 (GMT -0600)
De Guanajuato International

Weather History for MMLO - October, 2012

Change the Weather History Date:

Tuesday, October 9, 2012

  Actual Average Record
Temperature  
Mean Temperature 69 °F -  
Max Temperature 87 °F 79 °F 87 °F (2012)
Min Temperature 51 °F 55 °F 46 °F (2010)
Cooling Degree Days 4    
Growing Degree Days 19 (Base 50)    
Moisture  
Dew Point 50 °F    
Average Humidity 56    
Maximum Humidity 100    
Minimum Humidity 25    
Precipitation  
Precipitation 0.00 in - - ()
Sea Level Pressure  
Sea Level Pressure 30.10 in    
Wind  
Wind Speed 2 mph ()    
Max Wind Speed 9 mph    
Max Gust Speed -    
Visibility 9.1 miles    
Events      
Averages and records for this station are not official NWS values.
T = Trace of Precipitation, MM = Missing Value Source: Averaged Metar Reports

Daily Weather History Graph

Daily Weather History Graph

Search for Another Location

Airport or City:

Trip Planner

Search our weather history database for the weather conditions in past years. The results will help you decide how hot, cold, wet, or windy it might be!

Date:

Astronomy

Oct. 09, 2012 Rise Set
Actual Time 7:39 AM CDT 7:26 PM CDT
Civil Twilight 7:17 AM CDT 7:48 PM CDT
Nautical Twilight 6:51 AM CDT 8:14 PM CDT
Astronomical Twilight 6:25 AM CDT 8:39 PM CDT
Moon 2:01 AM CDT (10/9) 3:14 PM CDT (10/9)
Length of Visible Light 12h 31m
Length of Day
11h 46m
Last Quarter, 36% of the Moon is Illuminated
Oct 9
Last Quarter
Oct 15
New
Oct 21
First Quarter
Oct 29
Full
Nov 6
Last Quarter

Hourly Weather History & Observations

Time (CDT) Temp. Dew Point Humidity Pressure Visibility Wind Dir Wind Speed Gust Speed Precip Events Conditions
12:41 AM 62.6 °F 46.4 °F 55% 29.85 in 8.0 mi SSE 5.8 mph - N/A   Clear
1:44 AM 60.8 °F 50.0 °F 68% 30.27 in 8.0 mi Calm Calm - N/A   Clear
3:42 AM 55.4 °F 53.6 °F 94% 29.85 in 8.0 mi Calm Calm - N/A   Clear
4:42 AM 53.6 °F 53.6 °F 100% 30.27 in 8.0 mi Calm Calm - N/A   Clear
5:44 AM 53.6 °F 53.6 °F 100% 30.27 in 8.0 mi Calm Calm - N/A   Clear
6:42 AM 53.6 °F 51.8 °F 94% 29.93 in 8.0 mi Calm Calm - N/A   Clear
7:43 AM 51.8 °F 51.8 °F 100% 30.30 in 10.0 mi Calm Calm - N/A   Partly Cloudy
8:47 AM 60.8 °F 53.6 °F 77% 30.29 in 10.0 mi Calm Calm - N/A   Partly Cloudy
9:48 AM 68.0 °F 53.6 °F 60% 29.94 in 10.0 mi Calm Calm - N/A   Clear
10:50 AM 73.4 °F 53.6 °F 50% 30.32 in 10.0 mi Calm Calm - N/A   Clear
11:43 AM 75.2 °F 51.8 °F 44% 30.32 in 10.0 mi Calm Calm - N/A   Partly Cloudy
12:47 PM 80.6 °F 51.8 °F 37% 29.89 in 10.0 mi Calm Calm - N/A   Partly Cloudy
1:45 PM 82.4 °F 50.0 °F 32% 30.27 in 10.0 mi Calm Calm - N/A   Scattered Clouds
2:40 PM 84.2 °F 50.0 °F 30% 30.21 in 10.0 mi South 9.2 mph - N/A   Scattered Clouds
3:40 PM 87.8 °F 48.2 °F 25% 29.74 in 10.0 mi East 3.5 mph - N/A   Scattered Clouds
5:47 PM 82.4 °F 44.6 °F 26% 30.15 in 10.0 mi NNE 3.5 mph - N/A   Scattered Clouds
6:47 PM 84.2 °F 44.6 °F 25% 29.74 in 10.0 mi NNE 4.6 mph - N/A   Scattered Clouds
7:45 PM 73.4 °F 46.4 °F 38% 30.18 in 10.0 mi NE 4.6 mph - N/A   Scattered Clouds
8:40 PM 69.8 °F 46.4 °F 43% 30.18 in 8.0 mi Calm Calm - N/A   Clear
9:45 PM 69.8 °F 46.4 °F 43% 29.83 in 8.0 mi ENE 6.9 mph - N/A   Partly Cloudy
10:47 PM 69.8 °F 48.2 °F 46% 30.23 in 8.0 mi Calm Calm - N/A   Partly Cloudy
11:50 PM 68.0 °F 46.4 °F 46% 30.24 in 8.0 mi SE 6.9 mph - N/A   Partly Cloudy